Temperature
17 17 17 17 17 17 17 17 17 17 17 17 16 16 16 16 16 16 16 16 16 16 16 16 16 16 16 16 16 16 15 15 15 15 15 15 15 15 14 15 15 15 14
18 18 17 17 17 17 17 17 17 17 17 17 16 16 16 16 16 16 16 16 16 16 16 16 16 16 16 15 15 15 15 15 15 15 15 15 14 14 14 14 14 14 14
18 18 17 17 17 17 17 17 17 17 17 16 16 16 16 16 16 16 16 16 16 16 16 16 16 16 15 15 15 15 15 15 15 15 15 14 14 14 14 14 14 14 14
18 17 17 17 17 17 17 17 17 17 16 16 16 16 16 16 16 16 16 16 15 15 15 15 15 15 15 15 15 15 15 15 15 15 14 14 14 14 14 13 13 13 13
17 17 17 17 17 17 16 16 16 16 16 16 16 16 16 16 16 16 16 16 15 15 15 15 15 15 15 15 15 15 15 15 15 14 14 14 14 13 13 13 13 13 13
17 17 16 16 16 16 16 16 16 16 16 16 15 15 15 15 15 16 15 15 15 15 15 15 15 15 15 15 15 15 15 15 14 14 14 14 13 13 13 13 13 13 13
17 16 16 16 16 16 16 16 16 16 15 15 15 15 15 15 15 15 15 15 15 15 15 15 15 15 15 15 15 15 15 14 14 14 14 14 13 13 13 13 13 12 12
16 16 15 15 15 15 15 15 15 15 15 15 15 15 15 15 15 15 15 15 15 15 15 15 15 15 15 14 14 14 14 14 14 14 14 13 13 13 13 13 12 12 12
15 15 15 15 15 15 15 15 15 15 15 15 15 15 15 15 15 15 15 15 15 15 15 14 14 14 14 14 14 14 14 14 14 14 13 13 13 13 12 12 12 12 12
15 14 14 14 14 14 14 14 14 15 15 15 15 14 14 15 15 15 15 14 14 14 14 14 14 14 14 14 14 14 14 14 14 13 13 13 12 12 12 12 12 12 12
14 14 14 14 14 14 14 14 14 14 14 14 14 14 14 14 14 14 14 14 14 14 14 14 14 14 14 14 14 14 13 13 13 13 13 13 12 12 12 12 12 11 11
13 13 14 14 14 13 13 13 14 14 14 14 14 14 14 14 14 14 14 14 14 14 14 14 14 14 14 14 14 13 13 13 13 13 13 12 12 12 12 11 11 11 11
13 13 13 13 13 13 13 13 13 13 13 13 14 14 14 14 14 14 13 13 13 13 13 14 14 14 14 13 13 13 13 13 13 12 12 12 12 11 11 11 11 11 11
12 12 12 13 13 13 13 13 13 13 13 13 13 13 13 13 13 13 13 13 13 13 13 13 13 13 13 13 13 13 13 13 12 12 12 12 12 11 11 11 11 11 11
12 12 12 12 12 12 12 12 12 13 13 13 13 13 13 13 13 13 13 13 13 13 13 13 13 13 13 13 13 13 12 12 12 12 12 12 11 11 11 11 11 10 10
11 12 12 12 12 12 12 12 12 12 12 13 13 13 13 13 13 13 13 13 13 13 13 13 13 12 12 12 12 12 12 12 12 12 12 11 11 11 11 11 10 10 10
11 11 11 11 11 12 12 12 12 12 12 12 12 12 12 12 12 13 13 12 12 12 12 12 12 12 12 12 12 12 12 12 12 11 11 11 11 11 11 11 10 10 10
11 11 11 11 11 11 11 12 12 12 12 12 12 12 12 12 12 12 12 12 12 12 12 12 12 12 12 12 12 12 11 11 11 11 11 11 11 11 11 10 10 10 10
10 10 10 10 11 10 11 11 11 11 11 11 11 11 11 11 11 12 12 12 12 12 11 11 11 11 11 11 11 11 11 11 11 11 11 11 11 10 10 10 10 10 9
10 10 10 10 10 10 10 10 11 11 11 11 11 11 11 11 11 11 11 11 11 11 11 11 11 11 11 11 11 11 11 11 11 11 10 10 10 10 10 10 10 9 9
9 9 9 9 9 9 10 10 10 10 10 10 10 11 10 10 10 11 11 11 11 11 11 11 10 10 10 10 10 10 10 10 10 10 10 10 10 10 10 10 9 9 9
9 9 9 9 9 9 9 9 9 9 9 10 10 10 10 10 10 10 10 10 10 10 11 10 10 10 10 10 10 10 9 9 10 10 10 9 9 9 9 9 9 9 8
8 8 8 8 8 9 9 9 9 9 9 9 9 10 10 10 10 10 10 10 10 10 10 10 10 10 10 10 10 10 9 9 9 9 9 9 9 9 9 9 9 8 8
8 8 8 8 8 8 8 8 8 8 8 9 9 9 9 9 9 9 9 9 10 10 10 10 10 10 10 9 9 9 9 9 9 9 9 9 9 9 8 8 8 8 8
7 7 7 7 7 7 7 8 8 8 8 8 8 8 9 9 9 9 9 9 9 9 9 9 9 9 9 9 9 9 9 9 9 8 8 9 8 8 8 8 8 8 7
7 7 7 7 7 7 7 7 7 7 8 8 8 8 8 8 8 8 8 9 9 9 9 9 9 9 9 9 9 9 9 9 9 8 8 8 8 8 8 8 7 7 7
Wind_Speed
5 8 13 13 14 14 14 14 14 14 13 13 13 13 14 14 14 14 14 13 13 12 12 13 13 13 13 13 13 13 13 12 12 12 12 12 12 12 12 13 12 11 11
9 12 14 14 15 14 14 13 13 13 13 13 13 13 13 13 13 13 13 12 12 12 12 12 13 12 13 12 12 12 12 12 12 12 12 12 12 12 12 12 11 10 11
11 13 14 14 15 14 14 13 13 13 13 13 13 13 13 13 12 12 12 12 11 11 11 12 12 12 11 11 12 12 12 12 12 12 11 10 10 12 12 11 11 11 11
11 13 14 14 15 15 14 13 13 13 13 13 13 13 13 12 12 12 12 11 11 11 11 11 12 11 11 11 12 12 12 11 12 11 10 9 9 10 10 10 10 10 10
10 11 13 15 16 15 14 14 13 13 13 13 13 13 12 12 12 12 12 11 11 11 11 11 11 11 12 11 11 11 11 11 12 11 10 9 8 10 10 10 10 10 10
8 10 13 14 16 15 14 14 13 13 13 12 12 12 12 12 12 12 11 11 10 10 10 11 11 11 11 11 11 11 11 12 11 10 9 8 8 9 9 9 9 9 9
8 8 11 13 14 14 14 14 13 13 13 12 12 12 12 12 12 11 11 10 10 10 10 10 10 10 10 10 10 10 11 12 11 10 8 7 7 8 8 8 8 8 8
9 8 10 11 13 13 12 13 13 13 13 12 12 11 12 12 12 11 11 10 10 9 9 9 10 10 10 10 10 9 9 10 9 8 7 6 7 7 7 7 8 8 7
8 7 7 9 10 11 11 12 12 12 12 12 12 11 11 12 12 11 11 10 9 9 9 9 9 10 10 9 9 9 9 9 8 6 6 5 6 7 7 7 7 7 7
6 6 6 7 8 8 9 10 11 12 12 11 11 11 11 12 11 11 10 10 9 9 8 8 8 9 9 9 9 9 9 9 7 6 5 5 6 7 6 6 6 6 6
4 4 5 5 6 6 7 9 10 11 11 11 11 11 11 10 10 9 10 10 9 8 8 8 7 8 8 8 8 8 8 7 7 5 5 4 5 6 6 5 5 5 5
3 4 4 4 5 5 6 6 7 9 10 9 10 10 9 9 9 9 9 9 8 7 7 7 7 7 6 6 6 7 6 7 6 4 4 5 5 5 5 4 4 4 4
4 3 4 4 4 4 4 4 4 6 7 8 9 9 9 8 8 8 7 7 7 7 6 5 5 4 5 5 5 6 6 6 5 3 3 4 4 4 4 3 3 3 3
2 1 2 2 3 3 3 3 4 4 5 6 8 10 9 6 5 6 5 5 6 5 5 4 4 4 4 5 6 6 6 5 5 4 3 4 3 3 3 3 3 3 3
2 1 1 2 3 3 2 2 3 4 5 6 8 9 9 6 6 5 5 5 5 5 5 4 3 3 3 4 5 6 5 6 5 4 3 4 3 3 3 3 2 2 2
3 2 2 2 3 2 2 2 2 2 4 5 6 8 9 8 6 6 5 5 5 6 6 5 4 3 3 3 3 5 5 6 5 5 4 3 3 3 3 2 2 2 2
4 3 2 3 2 2 2 2 2 3 4 4 5 7 8 8 8 6 5 5 5 7 6 5 4 3 2 2 2 3 4 5 5 5 4 3 3 2 2 2 2 1 1
4 4 3 3 3 3 2 2 2 2 3 3 4 6 7 9 9 6 5 5 6 6 6 4 3 2 2 2 1 2 2 4 4 4 4 4 3 2 2 3 2 1 0
5 5 4 3 3 3 2 2 2 2 2 3 4 4 5 7 8 6 5 5 6 5 4 4 3 3 2 2 2 2 2 2 3 3 3 3 4 3 3 3 2 1 0
3 4 4 3 3 3 2 2 2 1 1 2 3 4 5 6 7 6 5 5 6 4 4 4 4 2 2 2 2 1 1 1 2 2 3 2 3 4 3 3 2 2 1
2 3 4 4 4 3 3 2 2 1 1 2 2 4 5 5 6 6 4 4 4 4 5 5 3 3 2 2 2 0 1 1 2 2 2 2 2 3 3 3 3 2 1
2 2 3 4 4 3 2 2 2 2 2 2 2 3 4 5 6 6 5 4 4 4 5 5 5 3 2 2 3 2 1 1 1 1 2 2 3 2 2 3 3 2 1
1 3 3 3 3 3 3 2 2 1 1 0 1 2 3 4 5 5 5 4 4 4 5 6 7 6 5 3 3 4 3 3 2 1 1 2 3 2 2 2 2 2 2
3 2 2 2 2 2 3 3 4 3 2 2 2 2 2 3 4 4 5 5 4 4 5 6 5 5 6 5 3 2 2 3 2 1 1 1 2 2 2 2 2 2 2
1 1 2 2 2 2 3 4 4 3 2 1 1 1 2 2 3 4 5 4 4 4 4 4 4 5 5 6 4 3 2 1 2 2 2 2 1 1 2 2 2 2 2
0 0 1 1 1 2 3 3 4 4 3 3 3 2 2 1 1 2 4 4 4 3 4 4 4 5 4 4 3 3 3 3 3 3 3 3 2 2 1 1 2 2 2
Wind_Direction
174 168 160 154 147 140 136 130 129 128 125 122 119 117 115 112 112 114 115 115 114 113 112 111 110 108 105 103 101 100 98 99 97 95 93 91 90 89 89 84 79 74 74
160 161 158 154 149 143 138 133 129 128 128 125 122 120 119 116 115 117 119 118 116 115 115 113 111 111 109 106 103 102 101 98 97 94 91 88 90 89 89 86 82 79 75
147 155 155 153 150 144 140 136 133 131 131 129 126 124 123 121 120 118 119 121 121 119 118 117 114 112 112 109 106 104 102 98 94 93 90 83 87 90 88 85 82 78 74
145 151 154 152 151 146 143 140 137 135 134 134 131 128 126 125 124 123 122 124 124 121 118 118 117 113 112 110 108 105 101 99 95 95 90 84 87 92 89 85 82 78 74
138 147 152 151 153 150 147 144 142 140 138 138 136 133 131 129 127 125 126 124 126 125 122 122 119 114 111 111 111 109 102 101 98 94 90 85 86 94 92 87 83 80 77
136 140 150 151 155 154 151 148 146 144 142 140 139 138 137 135 132 129 126 124 125 127 126 124 121 116 115 113 113 112 107 105 100 93 91 89 89 95 93 90 85 82 79
136 137 148 152 155 155 155 153 150 148 146 144 141 141 140 137 134 132 128 127 124 126 129 126 124 123 119 118 113 111 109 107 101 96 93 91 95 99 93 90 87 83 79
139 137 143 152 153 150 151 154 154 152 150 147 145 144 143 141 137 137 134 130 130 128 133 132 128 127 124 119 116 111 112 113 106 101 96 98 104 102 95 90 86 81 75
134 133 138 141 149 153 153 152 154 155 153 150 147 146 146 144 142 141 137 135 134 133 133 137 134 131 128 123 120 114 115 113 108 106 106 107 114 111 101 92 86 80 75
131 137 138 137 138 145 155 157 155 155 153 152 148 144 143 144 142 139 137 138 137 134 135 139 138 137 132 127 120 112 111 106 103 106 108 113 121 115 106 97 90 83 75
128 144 143 138 136 140 152 161 156 156 153 149 147 143 140 141 140 139 140 141 140 139 138 138 138 138 133 127 119 110 104 101 101 100 109 113 121 118 111 103 95 85 74
158 168 154 147 147 147 154 155 160 160 154 150 151 146 143 141 142 141 142 144 142 139 136 135 137 133 129 122 118 112 106 105 103 99 113 115 122 126 118 111 101 88 76
177 178 168 159 154 155 153 153 156 155 152 149 150 150 146 139 138 136 134 137 135 132 125 125 124 128 129 127 119 114 114 114 111 109 112 120 128 137 133 120 103 87 75
170 169 161 153 151 155 156 160 160 161 158 158 158 155 152 146 145 144 141 142 142 142 135 127 123 130 130 136 135 125 123 121 117 115 116 127 131 138 141 128 111 89 75
167 187 180 172 164 156 152 160 154 172 165 167 164 163 162 158 161 158 151 152 155 152 146 142 137 140 135 137 141 137 135 129 127 119 110 125 128 136 149 146 127 102 75
183 200 190 183 164 162 167 168 151 149 165 167 169 170 166 164 164 161 156 160 162 159 155 151 149 147 148 140 146 144 143 139 136 136 125 130 127 134 154 158 146 111 71
186 192 196 185 162 167 168 163 154 156 154 162 168 169 168 165 165 165 166 170 168 159 150 141 137 128 145 143 152 151 145 145 146 150 146 143 145 151 165 173 163 128 63
181 181 190 184 165 177 172 158 155 162 152 164 166 169 170 169 167 163 169 173 165 155 151 154 156 149 162 162 168 169 144 147 157 162 159 163 165 170 184 186 180 155 79
186 180 186 177 165 174 166 142 137 159 161 167 163 168 174 172 168 161 169 170 162 155 160 171 165 160 164 166 171 171 159 161 170 169 166 175 176 179 185 192 188 180 322
190 174 180 177 162 159 138 125 120 106 157 169 177 173 171 173 171 161 161 167 163 166 173 172 165 155 166 174 165 162 196 212 186 185 183 175 175 182 186 187 190 205 238
182 180 180 178 167 156 154 158 155 193 214 184 200 178 174 174 171 164 164 166 172 183 183 170 163 155 170 161 136 103 335 275 225 217 192 175 173 186 183 182 189 200 241
181 196 185 180 178 171 173 174 161 169 224 204 194 187 173 172 174 173 169 171 174 177 178 175 170 172 188 183 163 153 206 299 275 237 214 201 190 186 184 185 183 194 216
196 202 188 182 186 176 155 130 115 103 89 164 190 199 181 176 175 171 171 170 173 179 186 189 181 181 191 209 191 168 170 216 250 276 234 215 195 189 199 193 193 204 223
214 202 184 177 184 180 163 155 159 172 200 220 206 217 201 181 173 173 172 174 178 184 191 195 191 188 182 194 205 206 180 159 165 239 282 260 222 203 214 209 192 209 225
214 196 195 171 176 189 192 182 180 185 198 191 165 188 208 187 176 176 175 176 185 191 195 193 185 189 190 191 192 183 168 134 161 180 231 260 287 242 223 208 196 210 221
144 125 170 168 183 198 200 199 190 186 182 175 182 192 215 207 196 184 177 179 187 194 196 194 194 193 192 187 188 179 176 174 182 180 206 221 245 267 250 225 205 204 201
Height
1507 1509 1511 1513 1514 1515 1516 1517 1518 1519 1521 1522 1523 1524 1525 1526 1527 1527 1528 1529 1529 1530 1530 1531 1531 1532 1532 1532 1532 1533 1533 1533 1533 1534 1534 1534 1534 1534 1534 1533 1533 1533 1533
1505 1507 1510 1512 1514 1515 1516 1517 1518 1519 1520 1521 1522 1524 1525 1526 1527 1527 1528 1529 1529 1530 1530 1531 1531 1532 1532 1533 1533 1533 1533 1534 1534 1534 1534 1534 1534 1534 1534 1534 1534 1533 1533
1504 1507 1509 1511 1513 1514 1515 1516 1518 1519 1520 1521 1522 1523 1525 1526 1526 1527 1528 1529 1530 1530 1531 1531 1531 1532 1532 1533 1533 1533 1534 1534 1534 1534 1534 1534 1535 1535 1534 1534 1534 1534 1533
1504 1506 1508 1510 1512 1513 1515 1516 1517 1518 1520 1521 1522 1523 1524 1525 1526 1527 1528 1529 1530 1530 1531 1531 1532 1532 1532 1533 1533 1534 1534 1534 1534 1534 1534 1535 1535 1535 1535 1535 1534 1534 1534
1503 1505 1507 1509 1511 1512 1514 1516 1517 1518 1519 1520 1522 1523 1524 1525 1526 1527 1527 1528 1529 1530 1531 1531 1532 1532 1532 1533 1533 1533 1534 1534 1534 1534 1534 1535 1535 1535 1535 1535 1534 1534 1534
1502 1504 1506 1508 1510 1512 1513 1515 1516 1517 1519 1520 1521 1522 1523 1524 1525 1526 1527 1528 1529 1530 1530 1531 1532 1532 1532 1533 1533 1533 1533 1534 1534 1534 1534 1535 1535 1535 1535 1535 1534 1534 1533
1501 1503 1505 1507 1509 1511 1512 1514 1515 1517 1518 1519 1520 1521 1523 1524 1524 1525 1526 1527 1528 1529 1530 1531 1531 1532 1532 1532 1533 1533 1533 1533 1534 1534 1534 1534 1535 1535 1535 1535 1534 1534 1533
1501 1502 1504 1506 1508 1509 1511 1512 1514 1515 1517 1518 1519 1520 1521 1523 1523 1524 1525 1526 1527 1528 1529 1530 1530 1531 1531 1532 1532 1532 1533 1533 1533 1534 1534 1534 1534 1535 1534 1534 1534 1533 1533
1500 1501 1503 1505 1506 1508 1509 1511 1512 1514 1515 1517 1518 1519 1520 1521 1522 1523 1524 1525 1526 1527 1528 1529 1530 1530 1530 1531 1531 1532 1532 1532 1533 1533 1533 1533 1534 1534 1534 1533 1533 1533 1532
1499 1501 1502 1503 1504 1506 1508 1509 1510 1512 1513 1515 1516 1517 1519 1520 1521 1522 1523 1524 1525 1526 1527 1528 1529 1529 1529 1530 1530 1531 1531 1531 1532 1532 1533 1533 1533 1533 1533 1532 1532 1532 1531
1498 1499 1500 1501 1503 1504 1506 1507 1509 1510 1511 1513 1514 1515 1517 1518 1519 1520 1522 1523 1524 1524 1525 1526 1527 1528 1528 1529 1529 1530 1530 1531 1531 1532 1532 1532 1532 1532 1532 1532 1531 1531 1531
1495 1497 1498 1500 1501 1502 1503 1505 1506 1507 1508 1509 1511 1512 1514 1516 1517 1518 1520 1521 1522 1523 1524 1524 1525 1526 1527 1528 1528 1529 1529 1530 1530 1531 1531 1531 1531 1531 1531 1531 1530 1530 1530
1494 1495 1496 1497 1498 1500 1500 1502 1503 1503 1504 1506 1508 1510 1512 1513 1515 1516 1517 1519 1520 1521 1522 1523 1524 1525 1525 1526 1527 1527 1528 1529 1529 1529 1530 1530 1530 1530 1530 1530 1530 1529 1529
1491 1492 1493 1495 1496 1497 1498 1499 1500 1501 1501 1503 1505 1508 1509 1510 1512 1513 1515 1516 1518 1519 1520 1521 1522 1523 1524 1524 1525 1526 1526 1527 1527 1528 1528 1529 1529 1529 1529 1529 1528 1528 1527
1488 1489 1490 1492 1493 1495 1496 1497 1498 1499 1499 1501 1503 1505 1507 1507 1509 1511 1512 1514 1515 1516 1517 1518 1520 1521 1522 1522 1523 1524 1524 1525 1526 1526 1527 1527 1527 1527 1527 1527 1527 1527 1526
1485 1486 1488 1490 1491 1492 1493 1494 1495 1495 1496 1498 1500 1502 1504 1505 1506 1507 1509 1511 1512 1514 1515 1516 1518 1519 1520 1520 1521 1522 1522 1523 1524 1524 1525 1525 1526 1526 1526 1526 1525 1525 1525
1483 1484 1485 1487 1488 1489 1491 1491 1492 1493 1494 1496 1497 1499 1501 1503 1504 1506 1506 1508 1510 1511 1512 1514 1515 1516 1517 1518 1519 1520 1520 1521 1522 1523 1523 1523 1524 1524 1524 1524 1524 1523 1523
1481 1482 1484 1485 1485 1486 1488 1489 1490 1491 1492 1493 1494 1496 1498 1500 1502 1503 1503 1505 1507 1508 1510 1511 1512 1513 1515 1516 1517 1517 1518 1519 1520 1520 1521 1521 1521 1522 1522 1522 1522 1521 1521
1478 1479 1480 1482 1482 1484 1485 1486 1488 1488 1489 1490 1491 1493 1495 1497 1499 1500 1501 1502 1504 1505 1507 1509 1510 1511 1512 1513 1514 1515 1516 1516 1517 1518 1518 1519 1519 1519 1519 1520 1520 1519 1519
1475 1476 1477 1479 1480 1481 1482 1483 1484 1485 1486 1488 1489 1491 1492 1494 1496 1498 1499 1499 1501 1502 1504 1505 1507 1508 1509 1510 1511 1512 1513 1514 1514 1515 1516 1516 1517 1517 1517 1517 1517 1517 1517
1473 1474 1475 1476 1476 1478 1479 1480 1479 1481 1483 1485 1486 1488 1489 1491 1493 1494 1496 1497 1498 1499 1501 1502 1503 1505 1506 1507 1509 1510 1510 1511 1512 1512 1513 1513 1514 1514 1514 1515 1515 1515 1514
1470 1471 1472 1473 1474 1475 1476 1477 1478 1479 1480 1482 1483 1484 1486 1488 1489 1491 1492 1493 1494 1496 1497 1498 1500 1501 1503 1504 1505 1506 1507 1509 1508 1509 1510 1510 1511 1511 1511 1512 1512 1512 1512
1467 1469 1470 1470 1471 1472 1473 1474 1475 1476 1477 1478 1480 1481 1482 1484 1486 1487 1489 1490 1491 1493 1494 1495 1496 1498 1499 1501 1502 1503 1504 1503 1505 1506 1507 1508 1508 1508 1508 1509 1509 1509 1509
1465 1467 1467 1468 1469 1470 1471 1471 1471 1472 1473 1474 1475 1477 1479 1480 1482 1483 1485 1487 1488 1489 1491 1492 1493 1494 1496 1497 1498 1500 1501 1501 1502 1502 1504 1504 1505 1505 1505 1506 1506 1506 1506
1464 1464 1465 1466 1466 1467 1468 1469 1469 1470 1471 1471 1473 1474 1475 1476 1478 1480 1482 1483 1485 1486 1487 1488 1489 1490 1492 1493 1494 1495 1496 1497 1498 1499 1499 1501 1501 1502 1502 1502 1503 1503 1503
1462 1462 1463 1463 1464 1464 1465 1466 1467 1467 1468 1468 1469 1471 1472 1473 1475 1477 1478 1480 1481 1482 1483 1484 1486 1487 1488 1489 1490 1492 1493 1493 1494 1495 1496 1496 1497 1498 1499 1499 1499 1499 1499